Погода в Старых Петушки

Россия / Владимирская область     55°56′27″N   39°28′58″E
темп.,
°C
ветер,
м/с
пор.,
м/с
влажн.,
%
обл.,
%
осадки,
мм/ч
давл.,
гПа
погр.,
м
25 июля, вс
вс2500:00+12ссз11694 0.0 101811
03:00+9ссз22793 0.0 101913
06:00+12ююв007122 0.0 102037
09:00+16ю1259100 0.0 1020190
12:00+19зюз3543100 0.0 1021983
15:00+21з4540100 0.0 10201953
18:00+21сз354564 0.0 1020914
21:00+16юз116081 0.0 102113
26 июля, пн
пн2600:00+15зюз1161100 0.0 102215
03:00+16зюз2257100 0.0 102331
06:00+16зюз2261100 0.0 102347
09:00+19з135298 0.0 1023278
12:00+22з2444100 0.0 1023659
15:00+25з453459 0.0 10222382
18:00+21юз244925 0.0 1021120
21:00+19юз255486 0.0 1021111
27 июля, вт
вт2700:00+16зюз23675 0.0 102244
03:00+15зсз237164 0.0 102249
06:00+17зсз237116 0.0 102286
09:00+24с12475 0.0 1021597
12:00+28сз233348 0.0 10202602
15:00+27зсз133596 0.0 10192123
18:00+27зюз13390 0.0 10181492
21:00+20зюз235825 0.0 101838
28 июля, ср
ср2800:00+17сз11751 0.1 101811
03:00+15зсз22821 0.1 101841
06:00+17з13770 0.0 101791
09:00+24зюз12505 0.0 1016590
12:00+27юз3442100 0.0 10141769
15:00+24юз2656100 0.1 1012193
18:00+23юв1371100 0.6 1011149
21:00+17ю1292100 2.5 101157
29 июля, чт
чт2900:00+16вюв3698100 5.1 1009219
03:00+16юв2699100 5.4 1007263
06:00+17ююв2599100 1.3 1006256
09:00+18зюз2796100 1.3 1005447
12:00+18з489590 0.8 1005657
15:00+21з598484 1.6 1005907
18:00+21зсз411835 1.1 10051038
21:00+18зюз239521 1.3 100646